Regional Weather Roundup
Issued by NWS State College, PA

Home | Current Version | Previous Version | Text Only | Print | Product List | Glossary Off
Versions: 1 2 3 4 5 6 7 8 9 10 11 12 13 14 15 16 17 18 19 20 21 22 23 24 25 26 27 28 29 30 31 32 33 34 35 36 37 38 39 40 41 42 43 44 45 46 47 48 49 50

000
ASUS41 KCTP 251310
RWRCTP

REGIONAL WEATHER ROUNDUP
NATIONAL WEATHER SERVICE STATE COLLEGE PA
900 AM EDT SAT APR 25 2015

Note: "fair" indicates few or no clouds below 12,000 feet with no
significant weather and/or obstructions to visibility.

* = STATION THAT DOES NOT REPORT PRECIPITATION /E.G. RAIN...SNOW...ETC/
    THUNDER OR FOG.

PAZ002>004-007>009-013>016-020>023-029>032-251400-
WESTERN PENNSYLVANIA

CITY           SKY/WX    TMP DP  RH WIND       PRES   REMARKS
ERIE           PTSUNNY   38  22  52 E5        29.96F
MEADVILLE      CLOUDY    37  23  56 NE5       29.92F
FRANKLIN*      CLOUDY    34  21  60 CALM      29.93F
NEW CASTLE     CLOUDY    38  30  73 CALM      29.96R
BEAVER COUNTY  CLOUDY    36  34  93 CALM      29.93
BUTLER*        CLOUDY    37  27  65 CALM      29.94S
PITTSBURGH INT CLOUDY    35  33  92 S3        29.93F
PITTSBURGH     CLOUDY    33  30  88 S9        29.91F
INDIANA*       CLOUDY    37  19  48 CALM      29.96F
LATROBE        PTSUNNY   36  36 100 CALM      29.94F
WASHINGTON CO* CLOUDY    37  30  75 E8        29.95F
$$

PAZ004>006-010>012-017>019-024>028-033>037-041-042-045-046-049>053-251400-
CENTRAL PENNSYLVANIA

CITY           SKY/WX    TMP DP  RH WIND       PRES   REMARKS
BRADFORD       MOSUNNY   33  19  56 VRB5      29.89F
DUBOIS         CLOUDY    35  20  54 CALM      29.92S
CLEARFIELD     CLOUDY    34  22  61 S3        29.94S
JOHNSTOWN      CLOUDY    33  26  75 S3        29.89F
ALTOONA        CLOUDY    38  16  40 CALM      29.93F
STATE COLLEGE  CLOUDY    36  19  51 CALM      29.94F
WILLIAMSPORT   PTSUNNY   38  22  52 W7        29.95F
SELINSGROVE    CLOUDY    40  22  48 CALM      29.97S
FT INDIANTOWN  CLOUDY    41  19  42 VRB2      29.96S
CAPITAL CITY   CLOUDY    41  21  44 W6        29.97F
HARRISBURG     CLOUDY    42  21  43 NW9       29.97S
YORK           CLOUDY    39  24  55 W3        29.96F
$$

PAZ038>040-043-044-047-048-054-055-060>062-067>071-251400-
EASTERN PENNSYLVANIA

CITY           SKY/WX    TMP DP  RH WIND       PRES   REMARKS
SCRANTON       SUNNY     39  23  52 NW8       29.91S
MOUNT POCONO   MOSUNNY   34  21  59 NW12G20   29.86S
ALLENTOWN      PTSUNNY   42  23  46 NW7       29.93F
QUAKERTOWN*    PTSUNNY   39  23  52 N8        29.94S
READING        CLOUDY    41  22  46 W8        29.95S
LANCASTER      CLOUDY    40  25  55 W8        29.96S
COATESVILLE    CLOUDY    39  23  52 NW7       29.95S
POTTSTOWN      CLOUDY    41  23  48 NW10      29.96S
BLUE BELL      PTSUNNY   43  27  52 CALM      29.94S
DOYLESTOWN     PTSUNNY   41  23  48 NW8       29.93S
WILLOW GROVE   NOT AVBL
NORTH PHILA    PTSUNNY   44  21  40 N13G20    29.96S
PHILADELPHIA   CLOUDY    45  22  40 NW10      29.96S
$$


USA.gov is the U.S. government's official web portal to all federal, state and local government web resources and services.